Location: Seattle
(47.6064°N, 122.3308°W)
Time: 01:02:05
(UTC-07:00)

SEEDS - Visible Passes

Search period start: 23 April 2024 00:00
Search period end: 03 May 2024 00:00
Orbit: 554 x 564 km, 97.7° (Epoch: 22 April)

Date Brightness Start Highest point End Pass type
(mag) Time Alt. Az. Time Alt. Az. Time Alt. Az.
23 Apr ? 05:08:48 10° NNE 05:12:49 77° ESE 05:16:47 10° S visible
24 Apr ? 05:07:20 10° NNE 05:11:21 74° ESE 05:15:19 10° S visible
25 Apr ? 05:05:51 10° NNE 05:09:50 71° E 05:13:49 10° S visible
26 Apr ? 05:04:19 10° NNE 05:08:19 68° ESE 05:12:16 10° S visible
27 Apr ? 05:02:45 10° NNE 05:06:44 66° ESE 05:10:41 10° S visible
28 Apr ? 05:01:09 10° NNE 05:05:08 63° E 05:09:04 10° S visible
29 Apr ? 04:59:32 10° NNE 05:03:29 60° E 05:07:25 10° S visible
30 Apr ? 04:57:51 10° NNE 05:01:48 57° E 05:05:44 10° S visible
01 May ? 04:56:09 10° NNE 05:00:05 55° E 05:04:00 10° S visible
02 May ? 04:54:25 10° NNE 04:58:20 52° E 05:02:13 10° S visible
